| time (UTC) | temp F | wind direction | speed MPH | gust MPH | rain 1hr in | rain 24hr in | rain mn in | humidity % | barometer mb |
| 20260505022513 | 78 | 270 | 3.0 | 3.0 | 0.00 | 0.00 | 0.00 | 44 | 1012.0 |
| 20260505022010 | 78 | 272 | 3.0 | 3.0 | 0.00 | 0.00 | 0.00 | 44 | 1012.2 |
| 20260505021506 | 78 | 246 | 2.0 | 2.0 | 0.00 | 0.00 | 0.00 | 44 | 1012.0 |
| 20260505021003 | 78 | 237 | 3.0 | 3.0 | 0.00 | 0.00 | 0.00 | 43 | 1012.0 |
| 20260505020457 | 78 | 311 | 2.0 | 2.0 | 0.00 | 0.00 | 0.00 | 43 | 1012.1 |
| 20260505015954 | 79 | 267 | 4.0 | 5.0 | 0.00 | 0.00 | 0.00 | 42 | 1012.0 |
| 20260505015452 | 78 | 213 | 2.0 | 2.0 | 0.00 | 0.00 | 0.00 | 43 | 1011.9 |
| 20260505014949 | 78 | 270 | 5.0 | 6.0 | 0.00 | 0.00 | 0.00 | 42 | 1012.0 |
| 20260505014445 | 79 | 262 | 1.0 | 1.0 | 0.00 | 0.00 | 0.00 | 42 | 1012.2 |
| 20260505013943 | 79 | 227 | 1.0 | 1.0 | 0.00 | 0.00 | 0.00 | 41 | 1012.0 |
| 20260505013440 | 79 | 204 | 1.0 | 1.0 | 0.00 | 0.00 | 0.00 | 42 | 1011.8 |
| 20260505012937 | 78 | 248 | 2.0 | 2.0 | 0.00 | 0.00 | 0.00 | 42 | 1012.2 |
| 20260505012435 | 78 | 297 | 3.0 | 3.0 | 0.00 | 0.00 | 0.00 | 41 | 1012.3 |
| 20260505011931 | 80 | 254 | 5.0 | 7.0 | 0.00 | 0.00 | 0.00 | 40 | 1012.3 |
| 20260505011428 | 80 | 296 | 3.0 | 3.0 | 0.00 | 0.00 | 0.00 | 40 | 1012.2 |
| 20260505010925 | 79 | 251 | 2.0 | 2.0 | 0.00 | 0.00 | 0.00 | 40 | 1012.4 |
| 20260505010420 | 80 | 255 | 3.0 | 3.0 | 0.00 | 0.00 | 0.00 | 39 | 1012.4 |
| 20260505005916 | 79 | 208 | 2.0 | 2.0 | 0.00 | 0.00 | 0.00 | 40 | 1012.3 |
| 20260505005414 | 80 | 356 | 2.0 | 2.0 | 0.00 | 0.00 | 0.00 | 39 | 1012.3 |
| 20260505004911 | 80 | 263 | 3.0 | 3.0 | 0.00 | 0.00 | 0.00 | 39 | 1012.3 |
| 20260505004407 | 79 | 5 | 1.0 | 2.0 | 0.00 | 0.00 | 0.00 | 39 | 1012.0 |
| 20260505003904 | 79 | 265 | 2.0 | 2.0 | 0.00 | 0.00 | 0.00 | 39 | 1012.2 |
| 20260505003401 | 81 | 220 | 3.0 | 5.0 | 0.00 | 0.00 | 0.00 | 38 | 1012.2 |
| 20260505002857 | 79 | 189 | 1.0 | 1.0 | 0.00 | 0.00 | 0.00 | 39 | 1012.3 |
| 20260505002354 | 78 | 197 | 2.0 | 2.0 | 0.00 | 0.00 | 0.00 | 40 | 1012.2 |
| 20260505001853 | 78 | 277 | 3.0 | 3.0 | 0.00 | 0.00 | 0.00 | 39 | 1012.3 |
| 20260505001349 | 79 | 315 | 3.0 | 3.0 | 0.00 | 0.00 | 0.00 | 40 | 1012.3 |
| 20260505000847 | 79 | 280 | 3.0 | 5.0 | 0.00 | 0.00 | 0.00 | 39 | 1012.4 |
| 20260505000344 | 79 | 222 | 2.0 | 2.0 | 0.00 | 0.00 | 0.00 | 39 | 1012.4 |
| 20260504235841 | 79 | 249 | 3.0 | 5.0 | 0.00 | 0.00 | 0.00 | 39 | 1012.5 |
| 20260504235338 | 80 | 276 | 3.0 | 3.0 | 0.00 | 0.00 | 0.00 | 38 | 1012.6 |
| 20260504234834 | 80 | 199 | 1.0 | 1.0 | 0.00 | 0.00 | 0.00 | 39 | 1012.5 |
| 20260504234332 | 79 | 269 | 6.0 | 8.0 | 0.00 | 0.00 | 0.00 | 39 | 1012.5 |
| 20260504233829 | 79 | 299 | 3.0 | 5.0 | 0.00 | 0.00 | 0.00 | 38 | 1012.5 |
| 20260504233324 | 79 | 246 | 7.0 | 8.0 | 0.00 | 0.00 | 0.00 | 40 | 1012.4 |
| 20260504232821 | 79 | 188 | 5.0 | 6.0 | 0.00 | 0.00 | 0.00 | 39 | 1012.5 |
| 20260504232319 | 79 | 265 | 3.0 | 3.0 | 0.00 | 0.00 | 0.00 | 40 | 1012.6 |
| 20260504231815 | 79 | 276 | 6.0 | 7.0 | 0.00 | 0.00 | 0.00 | 39 | 1012.5 |
| 20260504231312 | 80 | 290 | 1.0 | 2.0 | 0.00 | 0.00 | 0.00 | 38 | 1012.5 |
| 20260504230808 | 80 | 188 | 3.0 | 6.0 | 0.00 | 0.00 | 0.00 | 39 | 1012.6 |
| 20260504230306 | 80 | 201 | 3.0 | 5.0 | 0.00 | 0.00 | 0.00 | 39 | 1012.5 |
| 20260504225805 | 79 | 263 | 2.0 | 3.0 | 0.00 | 0.00 | 0.00 | 40 | 1012.5 |
| 20260504225300 | 79 | 179 | 5.0 | 7.0 | 0.00 | 0.00 | 0.00 | 39 | 1012.7 |
| 20260504224758 | 78 | 290 | 3.0 | 3.0 | 0.00 | 0.00 | 0.00 | 40 | 1012.4 |
| 20260504224255 | 79 | 248 | 4.0 | 6.0 | 0.00 | 0.00 | 0.00 | 40 | 1012.9 |
| 20260504223751 | 79 | 275 | 3.0 | 3.0 | 0.00 | 0.00 | 0.00 | 40 | 1012.9 |
| 20260504223247 | 79 | 320 | 5.0 | 6.0 | 0.00 | 0.00 | 0.00 | 40 | 1012.9 |
| 20260504222744 | 78 | 330 | 4.0 | 5.0 | 0.00 | 0.00 | 0.00 | 40 | 1012.9 |
| 20260504222241 | 78 | 271 | 1.0 | 1.0 | 0.00 | 0.00 | 0.00 | 40 | 1013.2 |
| 20260504221739 | 79 | 243 | 4.0 | 7.0 | 0.00 | 0.00 | 0.00 | 38 | 1013.1 |
| 20260504221235 | 80 | 293 | 7.0 | 8.0 | 0.00 | 0.00 | 0.00 | 37 | 1013.2 |
| 20260504220732 | 78 | 185 | 6.0 | 7.0 | 0.00 | 0.00 | 0.00 | 38 | 1013.2 |
| 20260504220229 | 78 | 239 | 7.0 | 8.0 | 0.00 | 0.00 | 0.00 | 37 | 1013.4 |
| 20260504215726 | 78 | 321 | 2.0 | 3.0 | 0.00 | 0.00 | 0.00 | 39 | 1013.3 |
| 20260504215223 | 78 | 264 | 7.0 | 9.0 | 0.00 | 0.00 | 0.00 | 37 | 1013.4 |
| 20260504214719 | 78 | 269 | 3.0 | 5.0 | 0.00 | 0.00 | 0.00 | 37 | 1013.1 |
| 20260504214215 | 78 | 259 | 3.0 | 5.0 | 0.00 | 0.00 | 0.00 | 38 | 1013.3 |
| 20260504213712 | 78 | 290 | 3.0 | 6.0 | 0.00 | 0.00 | 0.00 | 38 | 1013.3 |
| 20260504213209 | 79 | 287 | 6.0 | 7.0 | 0.00 | 0.00 | 0.00 | 37 | 1013.3 |
| 20260504212706 | 80 | 261 | 1.0 | 1.0 | 0.00 | 0.00 | 0.00 | 36 | 1013.4 |
| 20260504212202 | 79 | 297 | 2.0 | 2.0 | 0.00 | 0.00 | 0.00 | 37 | 1013.3 |
| 20260504211700 | 79 | 262 | 6.0 | 7.0 | 0.00 | 0.00 | 0.00 | 37 | 1013.5 |
| 20260504211155 | 79 | 233 | 5.0 | 6.0 | 0.00 | 0.00 | 0.00 | 37 | 1013.1 |
| 20260504210653 | 78 | 273 | 1.0 | 2.0 | 0.00 | 0.00 | 0.00 | 38 | 1013.3 |
| 20260504210150 | 78 | 336 | 2.0 | 2.0 | 0.00 | 0.00 | 0.00 | 38 | 1013.3 |
| 20260504205647 | 77 | 234 | 4.0 | 6.0 | 0.00 | 0.00 | 0.00 | 37 | 1013.4 |
| 20260504205144 | 78 | 180 | 4.0 | 6.0 | 0.00 | 0.00 | 0.00 | 38 | 1013.5 |
| 20260504204643 | 79 | 163 | 5.0 | 7.0 | 0.00 | 0.00 | 0.00 | 39 | 1013.2 |
| 20260504204141 | 78 | 192 | 2.0 | 2.0 | 0.00 | 0.00 | 0.00 | 41 | 1013.3 |
| 20260504203640 | 78 | 295 | 2.0 | 2.0 | 0.00 | 0.00 | 0.00 | 40 | 1013.3 |
| 20260504203137 | 79 | 202 | 1.0 | 2.0 | 0.00 | 0.00 | 0.00 | 40 | 1013.5 |
| 20260504202637 | 78 | 186 | 5.0 | 7.0 | 0.00 | 0.00 | 0.00 | 41 | 1013.6 |
| 20260504202134 | 77 | 285 | 3.0 | 3.0 | 0.00 | 0.00 | 0.00 | 41 | 1013.4 |
| 20260504201631 | 76 | 268 | 7.0 | 8.0 | 0.00 | 0.00 | 0.00 | 43 | 1013.4 |
| 20260504201129 | 76 | 264 | 5.0 | 7.0 | 0.00 | 0.00 | 0.00 | 44 | 1013.6 |
| 20260504200626 | 78 | 269 | 5.0 | 7.0 | 0.00 | 0.00 | 0.00 | 41 | 1013.6 |
| 20260504200122 | 77 | 98 | 0.0 | 1.0 | 0.00 | 0.00 | 0.00 | 42 | 1013.6 |
| 20260504195618 | 78 | 181 | 1.0 | 2.0 | 0.00 | 0.00 | 0.00 | 43 | 1013.5 |
| 20260504195115 | 76 | 50 | 1.0 | 1.0 | 0.00 | 0.00 | 0.00 | 45 | 1013.3 |
| 20260504194612 | 77 | 174 | 3.0 | 3.0 | 0.00 | 0.00 | 0.00 | 43 | 1013.6 |
| 20260504194107 | 75 | 332 | 1.0 | 2.0 | 0.00 | 0.00 | 0.00 | 44 | 1013.7 |
| 20260504193604 | 76 | 289 | 1.0 | 2.0 | 0.00 | 0.00 | 0.00 | 44 | 1013.6 |
| 20260504193102 | 77 | 191 | 2.0 | 3.0 | 0.00 | 0.00 | 0.00 | 43 | 1013.5 |
| 20260504192600 | 77 | 189 | 1.0 | 2.0 | 0.00 | 0.00 | 0.00 | 44 | 1013.7 |
| 20260504192058 | 76 | 173 | 5.0 | 5.0 | 0.00 | 0.00 | 0.00 | 44 | 1013.9 |
| 20260504191556 | 75 | 65 | 3.0 | 3.0 | 0.00 | 0.00 | 0.00 | 45 | 1013.7 |
| 20260504191052 | 75 | 292 | 5.0 | 6.0 | 0.00 | 0.00 | 0.00 | 44 | 1014.0 |
| 20260504190548 | 75 | 303 | 3.0 | 6.0 | 0.00 | 0.00 | 0.00 | 46 | 1013.8 |
| 20260504190044 | 74 | 261 | 3.0 | 5.0 | 0.00 | 0.00 | 0.00 | 45 | 1013.7 |
| 20260504185542 | 75 | 343 | 4.0 | 5.0 | 0.00 | 0.00 | 0.00 | 46 | 1014.0 |
| 20260504185038 | 75 | 198 | 1.0 | 2.0 | 0.00 | 0.00 | 0.00 | 49 | 1014.1 |
| 20260504184533 | 75 | 193 | 2.0 | 3.0 | 0.00 | 0.00 | 0.00 | 46 | 1013.9 |
| 20260504184029 | 74 | 331 | 2.0 | 2.0 | 0.00 | 0.00 | 0.00 | 49 | 1014.1 |
| 20260504183526 | 74 | 221 | 2.0 | 3.0 | 0.00 | 0.00 | 0.00 | 49 | 1013.9 |
| 20260504183025 | 73 | 294 | 5.0 | 6.0 | 0.00 | 0.00 | 0.00 | 48 | 1014.0 |
| 20260504182521 | 73 | 221 | 1.0 | 1.0 | 0.00 | 0.00 | 0.00 | 49 | 1014.0 |
| 20260504182018 | 74 | 16 | 2.0 | 3.0 | 0.00 | 0.00 | 0.00 | 49 | 1013.8 |
| 20260504181515 | 73 | 181 | 2.0 | 3.0 | 0.00 | 0.00 | 0.00 | 52 | 1013.9 |
| 20260504181014 | 73 | 206 | 2.0 | 3.0 | 0.00 | 0.00 | 0.00 | 52 | 1014.0 |
| 20260504180512 | 71 | 162 | 1.0 | 2.0 | 0.00 | 0.00 | 0.00 | 53 | 1013.9 |
| 20260504180011 | 72 | 175 | 1.0 | 1.0 | 0.00 | 0.00 | 0.00 | 51 | 1014.1 |
| 20260504175508 | 73 | 333 | 3.0 | 5.0 | 0.00 | 0.00 | 0.00 | 51 | 1013.9 |
| 20260504175005 | 72 | 159 | 1.0 | 2.0 | 0.00 | 0.00 | 0.00 | 51 | 1014.0 |
| 20260504174502 | 71 | 223 | 3.0 | 3.0 | 0.00 | 0.00 | 0.00 | 52 | 1014.1 |
| 20260504173959 | 72 | 142 | 1.0 | 2.0 | 0.00 | 0.00 | 0.00 | 51 | 1013.9 |
| 20260504173456 | 71 | 102 | 0.0 | 0.0 | 0.00 | 0.00 | 0.00 | 50 | 1014.2 |
| 20260504172953 | 71 | 278 | 1.0 | 1.0 | 0.00 | 0.00 | 0.00 | 51 | 1014.0 |
| 20260504172449 | 71 | 224 | 2.0 | 3.0 | 0.00 | 0.00 | 0.00 | 52 | 1014.0 |
| 20260504171946 | 72 | 234 | 3.0 | 3.0 | 0.00 | 0.00 | 0.00 | 50 | 1014.0 |
| 20260504171443 | 70 | 276 | 2.0 | 2.0 | 0.00 | 0.00 | 0.00 | 53 | 1013.9 |
| 20260504170940 | 71 | 221 | 3.0 | 3.0 | 0.00 | 0.00 | 0.00 | 52 | 1014.1 |
| 20260504170436 | 70 | 182 | 1.0 | 1.0 | 0.00 | 0.00 | 0.00 | 52 | 1014.1 |
| 20260504160355 | 67 | 147 | 0.0 | 1.0 | 0.00 | 0.00 | 0.00 | 56 | 1013.8 |
| 20260504150820 | 61 | 203 | 2.0 | 2.0 | 0.00 | 0.00 | 0.00 | 70 | 1013.3 |
| 20260504150316 | 60 | 244 | 0.0 | 0.0 | 0.00 | 0.00 | 0.00 | 75 | 1013.4 |
| 20260504141247 | 53 | 69 | 0.0 | 0.0 | 0.00 | 0.00 | 0.00 | 88 | 1013.2 |
| 20260504140743 | 52 | 69 | 0.0 | 1.0 | 0.00 | 0.00 | 0.00 | 89 | 1013.0 |
| 20260504140239 | 52 | 69 | 1.0 | 1.0 | 0.00 | 0.00 | 0.00 | 89 | 1013.2 |
| 20260504130708 | 50 | 69 | 0.0 | 1.0 | 0.00 | 0.00 | 0.00 | 92 | 1012.7 |
| 20260504130203 | 50 | 69 | 0.0 | 1.0 | 0.00 | 0.00 | 0.00 | 92 | 1012.8 |
| 20260504120127 | 51 | 69 | 1.0 | 1.0 | 0.00 | 0.00 | 0.00 | 89 | 1012.7 |
| 20260504110555 | 52 | 69 | 0.0 | 1.0 | 0.00 | 0.00 | 0.00 | 89 | 1012.6 |
| 20260504100516 | 53 | 69 | 1.0 | 1.0 | 0.00 | 0.00 | 0.00 | 86 | 1012.5 |
| 20260504081910 | 55 | 69 | 0.0 | 1.0 | 0.00 | 0.00 | 0.00 | 83 | 1012.4 |
| 20260504081406 | 56 | 69 | 0.0 | 1.0 | 0.00 | 0.00 | 0.00 | 83 | 1012.5 |
| 20260504080902 | 56 | 64 | 1.0 | 1.0 | 0.00 | 0.00 | 0.00 | 82 | 1012.5 |
| 20260504080400 | 56 | 64 | 1.0 | 1.0 | 0.00 | 0.00 | 0.00 | 81 | 1012.5 |
| 20260504070327 | 58 | 76 | 0.0 | 1.0 | 0.00 | 0.00 | 0.00 | 72 | 1012.9 |
| 20260504060247 | 59 | 70 | 1.0 | 1.0 | 0.00 | 0.00 | 0.00 | 76 | 1012.6 |
| 20260504050715 | 61 | 73 | 0.0 | 1.0 | 0.00 | 0.00 | 0.00 | 74 | 1012.8 |
| 20260504050212 | 62 | 73 | 1.0 | 1.0 | 0.00 | 0.00 | 0.00 | 73 | 1012.7 |
| 20260504045710 | 63 | 83 | 1.0 | 1.0 | 0.00 | 0.00 | 0.00 | 70 | 1012.6 |
| 20260504045209 | 64 | 73 | 0.0 | 1.0 | 0.00 | 0.00 | 0.00 | 72 | 1012.6 |
| 20260504044708 | 64 | 10 | 1.0 | 1.0 | 0.00 | 0.00 | 0.00 | 65 | 1012.5 |
| 20260504044205 | 64 | 76 | 0.0 | 0.0 | 0.00 | 0.00 | 0.00 | 68 | 1012.7 |
| 20260504043701 | 64 | 58 | 0.0 | 0.0 | 0.00 | 0.00 | 0.00 | 65 | 1012.6 |
| 20260504043158 | 65 | 15 | 1.0 | 1.0 | 0.00 | 0.00 | 0.00 | 62 | 1012.7 |
| 20260504042656 | 65 | 6 | 2.0 | 2.0 | 0.00 | 0.00 | 0.00 | 63 | 1012.4 |
| 20260504042152 | 66 | 65 | 1.0 | 1.0 | 0.00 | 0.00 | 0.00 | 63 | 1012.4 |
| 20260504041648 | 65 | 59 | 1.0 | 1.0 | 0.00 | 0.00 | 0.00 | 65 | 1012.5 |
| 20260504041144 | 66 | 51 | 1.0 | 1.0 | 0.00 | 0.00 | 0.00 | 65 | 1012.4 |
| 20260504040641 | 67 | 54 | 2.0 | 3.0 | 0.00 | 0.00 | 0.00 | 59 | 1012.2 |
| 20260504040138 | 68 | 15 | 1.0 | 1.0 | 0.00 | 0.00 | 0.00 | 60 | 1012.4 |
| 20260504035635 | 67 | 52 | 1.0 | 2.0 | 0.00 | 0.00 | 0.00 | 60 | 1012.3 |
| 20260504035132 | 68 | 58 | 0.0 | 0.0 | 0.00 | 0.00 | 0.00 | 61 | 1012.3 |
| 20260504034630 | 68 | 334 | 2.0 | 3.0 | 0.00 | 0.00 | 0.00 | 58 | 1012.3 |
| 20260504034126 | 68 | 75 | 0.0 | 0.0 | 0.00 | 0.00 | 0.00 | 60 | 1012.3 |
| 20260504033624 | 68 | 69 | 1.0 | 2.0 | 0.00 | 0.00 | 0.00 | 59 | 1012.3 |
| 20260504033121 | 69 | 69 | 1.0 | 1.0 | 0.00 | 0.00 | 0.00 | 59 | 1012.5 |
| 20260504032618 | 69 | 40 | 3.0 | 3.0 | 0.00 | 0.00 | 0.00 | 58 | 1012.4 |
| 20260504032115 | 69 | 32 | 2.0 | 2.0 | 0.00 | 0.00 | 0.00 | 58 | 1012.1 |
| 20260504031612 | 70 | 52 | 0.0 | 1.0 | 0.00 | 0.00 | 0.00 | 59 | 1012.1 |
| 20260504031108 | 71 | 50 | 1.0 | 2.0 | 0.00 | 0.00 | 0.00 | 57 | 1012.3 |
| 20260504030605 | 71 | 15 | 0.0 | 1.0 | 0.00 | 0.00 | 0.00 | 56 | 1012.2 |
| 20260504025559 | 72 | 59 | 0.0 | 1.0 | 0.00 | 0.00 | 0.00 | 56 | 1012.1 |
| 20260504025055 | 73 | 4 | 3.0 | 3.0 | 0.00 | 0.00 | 0.00 | 55 | 1012.2 |
| 20260504024553 | 73 | 28 | 2.0 | 3.0 | 0.00 | 0.00 | 0.00 | 54 | 1012.3 |
| 20260504024049 | 74 | 36 | 0.0 | 1.0 | 0.00 | 0.00 | 0.00 | 54 | 1012.2 |
| 20260504023546 | 74 | 51 | 1.0 | 2.0 | 0.00 | 0.00 | 0.00 | 55 | 1012.2 |
| 20260504023042 | 75 | 342 | 1.0 | 1.0 | 0.00 | 0.00 | 0.00 | 54 | 1012.2 |